Time,TemperatureF,DewpointF,PressureIn,WindDirection,WindDirectionDegrees,WindSpeedMPH,WindSpeedGustMPH,Humidity,HourlyPrecipIn,Conditions,Clouds,dailyrainin,SolarRadiationWatts/m^2,SoftwareType,DateUTC
2013-04-19 00:01:00,79.0,73.8,30.02,ESE,121,10.0,15.0,84,0.00,,,0.00,0.0,meteohub,2013-04-19 04:01:00,
2013-04-19 00:02:00,79.0,73.8,30.02,East,91,11.0,15.0,84,0.00,,,0.00,0.0,meteohub,2013-04-19 04:02:00,
2013-04-19 00:07:00,79.0,73.8,30.02,SE,136,6.0,15.0,84,0.00,,,0.00,0.0,meteohub,2013-04-19 04:07:00,
2013-04-19 00:12:00,79.0,73.8,30.02,East,99,11.0,14.0,84,0.00,,,0.00,0.0,meteohub,2013-04-19 04:12:00,
2013-04-19 00:17:00,79.2,73.9,30.02,ESE,113,9.0,17.0,84,0.00,,,0.00,0.0,meteohub,2013-04-19 04:17:00,
2013-04-19 00:22:00,79.2,73.9,30.02,SE,135,9.0,17.0,84,0.00,,,0.00,0.0,meteohub,2013-04-19 04:22:00,
2013-04-19 00:27:00,79.2,73.6,30.02,SE,130,12.0,21.0,83,0.00,,,0.00,0.0,meteohub,2013-04-19 04:27:00,
2013-04-19 00:32:00,79.2,73.6,30.02,ESE,105,7.0,21.0,83,0.00,,,0.00,0.0,meteohub,2013-04-19 04:32:00,
2013-04-19 00:37:00,79.2,73.9,30.02,ESE,115,9.0,21.0,84,0.00,,,0.00,0.0,meteohub,2013-04-19 04:37:00,
2013-04-19 00:42:00,79.2,73.9,30.02,ESE,114,4.0,14.0,84,0.00,,,0.00,0.0,meteohub,2013-04-19 04:42:00,
2013-04-19 00:47:00,79.2,73.9,30.02,ESE,120,4.0,14.0,84,0.00,,,0.00,0.0,meteohub,2013-04-19 04:47:00,
2013-04-19 00:52:00,79.0,73.8,30.02,East,98,9.0,14.0,84,0.00,,,0.00,0.0,meteohub,2013-04-19 04:52:00,
2013-04-19 00:57:00,79.2,73.6,30.01,SE,140,5.0,14.0,83,0.00,,,0.00,0.0,meteohub,2013-04-19 04:57:00,
2013-04-19 01:02:00,79.2,73.6,30.01,SSE,147,7.0,15.0,83,0.00,,,0.00,0.0,meteohub,2013-04-19 05:02:00,
2013-04-19 01:07:00,79.0,73.0,30.01,SSE,160,7.0,15.0,82,0.00,,,0.00,0.0,meteohub,2013-04-19 05:07:00,
2013-04-19 01:12:00,79.0,73.4,30.01,ESE,113,8.0,13.0,83,0.00,,,0.00,0.0,meteohub,2013-04-19 05:12:00,
2013-04-19 01:17:00,78.8,73.2,30.01,SE,129,5.0,13.0,83,0.00,,,0.00,0.0,meteohub,2013-04-19 05:17:00,
2013-04-19 01:22:00,78.8,73.2,30.01,SE,137,8.0,12.0,83,0.00,,,0.00,0.0,meteohub,2013-04-19 05:22:00,
2013-04-19 01:28:00,78.6,73.0,30.01,ESE,118,5.0,11.0,83,0.00,,,0.00,0.0,meteohub,2013-04-19 05:28:00,
2013-04-19 01:33:00,78.6,73.0,30.01,ESE,115,10.0,11.0,83,0.00,,,0.00,0.0,meteohub,2013-04-19 05:33:00,
2013-04-19 01:38:00,78.6,73.0,30.01,SE,135,10.0,11.0,83,0.00,,,0.00,0.0,meteohub,2013-04-19 05:38:00,
2013-04-19 01:43:00,78.3,73.0,30.01,SE,146,4.0,16.0,84,0.00,,,0.00,0.0,meteohub,2013-04-19 05:43:00,
2013-04-19 01:48:00,78.1,72.9,30.01,SE,136,5.0,16.0,84,0.00,,,0.00,0.0,meteohub,2013-04-19 05:48:00,
2013-04-19 01:53:00,77.7,72.9,30.01,SE,144,9.0,13.0,85,0.00,,,0.00,0.0,meteohub,2013-04-19 05:53:00,
2013-04-19 01:58:00,77.7,72.9,30.01,SSE,164,5.0,11.0,85,0.00,,,0.00,0.0,meteohub,2013-04-19 05:58:00,
2013-04-19 02:03:00,77.7,72.5,30.01,South,173,6.0,11.0,84,0.00,,,0.00,0.0,meteohub,2013-04-19 06:03:00,
2013-04-19 02:08:00,77.5,72.3,30.01,South,172,4.0,12.0,84,0.00,,,0.00,0.0,meteohub,2013-04-19 06:08:00,
2013-04-19 02:13:00,77.5,72.3,30.00,SSE,165,4.0,12.0,84,0.00,,,0.00,0.0,meteohub,2013-04-19 06:13:00,
2013-04-19 02:18:00,77.4,72.1,30.00,SSE,157,5.0,11.0,84,0.00,,,0.00,0.0,meteohub,2013-04-19 06:18:00,
2013-04-19 02:23:00,77.4,72.5,30.00,SSE,153,3.0,10.0,85,0.00,,,0.00,0.0,meteohub,2013-04-19 06:23:00,
2013-04-19 02:28:00,77.5,72.7,30.00,SE,125,4.0,9.0,85,0.00,,,0.00,0.0,meteohub,2013-04-19 06:28:00,
2013-04-19 02:33:00,77.5,72.3,29.99,SE,126,9.0,11.0,84,0.00,,,0.00,0.0,meteohub,2013-04-19 06:33:00,
2013-04-19 02:38:00,77.7,72.5,29.99,SE,136,5.0,11.0,84,0.00,,,0.00,0.0,meteohub,2013-04-19 06:38:00,
2013-04-19 02:43:00,78.1,72.9,29.99,SE,144,7.0,11.0,84,0.00,,,0.00,0.0,meteohub,2013-04-19 06:43:00,
2013-04-19 02:48:00,78.3,72.7,29.99,SE,125,5.0,12.0,83,0.00,,,0.00,0.0,meteohub,2013-04-19 06:48:00,
2013-04-19 02:53:00,78.3,73.0,29.99,ESE,119,7.0,12.0,84,0.00,,,0.00,0.0,meteohub,2013-04-19 06:53:00,
2013-04-19 02:58:00,78.3,73.0,29.99,SE,144,4.0,13.0,84,0.00,,,0.00,0.0,meteohub,2013-04-19 06:58:00,
2013-04-19 03:03:00,78.1,72.9,29.99,ESE,120,4.0,13.0,84,0.00,,,0.00,0.0,meteohub,2013-04-19 07:03:00,
2013-04-19 03:08:00,78.1,72.9,29.99,SE,139,4.0,13.0,84,0.00,,,0.00,0.0,meteohub,2013-04-19 07:08:00,
2013-04-19 03:14:00,78.1,72.9,29.99,SE,138,3.0,11.0,84,0.00,,,0.00,0.0,meteohub,2013-04-19 07:14:00,
2013-04-19 03:19:00,78.1,73.2,29.99,SSE,147,2.0,11.0,85,0.00,,,0.00,0.0,meteohub,2013-04-19 07:19:00,
2013-04-19 03:24:00,78.3,73.4,29.99,SSE,155,4.0,11.0,85,0.00,,,0.00,0.0,meteohub,2013-04-19 07:24:00,
2013-04-19 03:29:00,78.3,73.0,29.99,SSE,159,7.0,10.0,84,0.00,,,0.00,0.0,meteohub,2013-04-19 07:29:00,
2013-04-19 03:34:00,78.4,73.2,29.99,SSE,155,4.0,10.0,84,0.00,,,0.00,0.0,meteohub,2013-04-19 07:34:00,
2013-04-19 03:39:00,78.4,73.2,29.99,SSE,160,7.0,11.0,84,0.00,,,0.00,0.0,meteohub,2013-04-19 07:39:00,
2013-04-19 03:44:00,78.4,72.9,29.99,SSE,160,5.0,11.0,83,0.00,,,0.00,0.0,meteohub,2013-04-19 07:44:00,
2013-04-19 03:49:00,78.4,72.5,29.99,SSE,150,7.0,12.0,82,0.00,,,0.00,0.0,meteohub,2013-04-19 07:49:00,
2013-04-19 03:54:00,78.6,72.3,29.99,SE,134,7.0,12.0,81,0.00,,,0.00,0.0,meteohub,2013-04-19 07:54:00,
2013-04-19 03:59:00,78.6,72.3,29.99,SSE,164,10.0,14.0,81,0.00,,,0.00,0.0,meteohub,2013-04-19 07:59:00,
2013-04-19 04:04:00,78.4,72.1,29.98,SE,140,12.0,15.0,81,0.00,,,0.00,0.0,meteohub,2013-04-19 08:04:00,
2013-04-19 04:09:00,78.4,72.1,29.99,SE,134,9.0,15.0,81,0.00,,,0.00,0.0,meteohub,2013-04-19 08:09:00,
2013-04-19 04:14:00,78.4,72.1,29.99,SSE,153,11.0,15.0,81,0.00,,,0.00,0.0,meteohub,2013-04-19 08:14:00,
2013-04-19 04:19:00,78.4,72.1,29.99,SE,139,7.0,14.0,81,0.00,,,0.00,0.0,meteohub,2013-04-19 08:19:00,
2013-04-19 04:24:00,78.4,72.1,29.99,SSE,150,6.0,15.0,81,0.00,,,0.00,0.0,meteohub,2013-04-19 08:24:00,
2013-04-19 04:29:00,78.3,72.0,29.99,SE,142,7.0,16.0,81,0.00,,,0.00,0.0,meteohub,2013-04-19 08:29:00,
2013-04-19 04:34:00,78.3,72.0,29.99,South,170,8.0,16.0,81,0.00,,,0.00,0.0,meteohub,2013-04-19 08:34:00,
2013-04-19 04:39:00,78.3,72.0,29.99,SSE,161,2.0,15.0,81,0.00,,,0.00,0.0,meteohub,2013-04-19 08:39:00,
2013-04-19 04:44:00,78.3,72.0,29.99,SSE,148,4.0,13.0,81,0.00,,,0.00,0.0,meteohub,2013-04-19 08:44:00,
2013-04-19 04:49:00,78.1,71.8,29.99,SE,137,6.0,15.0,81,0.00,,,0.00,0.0,meteohub,2013-04-19 08:49:00,
2013-04-19 04:54:00,78.1,72.1,29.99,South,169,7.0,15.0,82,0.00,,,0.00,0.0,meteohub,2013-04-19 08:54:00,
2013-04-19 04:59:00,78.1,72.1,29.99,South,169,3.0,15.0,82,0.00,,,0.00,0.0,meteohub,2013-04-19 08:59:00,
2013-04-19 05:04:00,78.1,72.1,29.99,SSE,158,7.0,13.0,82,0.00,,,0.00,0.0,meteohub,2013-04-19 09:04:00,
2013-04-19 05:09:00,77.9,72.0,29.99,SE,134,9.0,13.0,82,0.00,,,0.00,0.0,meteohub,2013-04-19 09:09:00,
2013-04-19 05:14:00,77.7,71.8,29.99,SSE,168,3.0,10.0,82,0.00,,,0.00,0.0,meteohub,2013-04-19 09:14:00,
2013-04-19 05:19:00,77.7,71.8,29.99,SSE,151,6.0,10.0,82,0.00,,,0.00,0.0,meteohub,2013-04-19 09:19:00,
2013-04-19 05:24:00,77.7,71.8,29.99,SSE,160,7.0,11.0,82,0.00,,,0.00,0.0,meteohub,2013-04-19 09:24:00,
2013-04-19 05:29:00,77.9,72.0,29.99,South,186,4.0,12.0,82,0.00,,,0.00,0.0,meteohub,2013-04-19 09:29:00,
2013-04-19 05:34:00,77.7,71.8,29.99,SE,145,8.0,12.0,82,0.00,,,0.00,0.0,meteohub,2013-04-19 09:34:00,
2013-04-19 05:39:00,77.5,71.6,29.99,SSE,157,6.0,12.0,82,0.00,,,0.00,0.0,meteohub,2013-04-19 09:39:00,
2013-04-19 05:44:00,77.7,71.8,29.99,SSE,162,5.0,12.0,82,0.00,,,0.00,0.0,meteohub,2013-04-19 09:44:00,
2013-04-19 05:49:00,77.7,71.8,29.99,SE,130,7.0,11.0,82,0.00,,,0.00,0.0,meteohub,2013-04-19 09:49:00,
2013-04-19 05:54:00,77.7,71.8,29.99,SSE,163,6.0,12.0,82,0.00,,,0.00,0.0,meteohub,2013-04-19 09:54:00,
2013-04-19 06:00:00,77.7,71.8,29.99,South,170,7.0,12.0,82,0.00,,,0.00,0.0,meteohub,2013-04-19 10:00:00,
2013-04-19 06:05:00,77.5,71.6,30.00,SE,146,3.0,12.0,82,0.00,,,0.00,0.0,meteohub,2013-04-19 10:05:00,
2013-04-19 06:10:00,77.5,71.6,30.00,SSE,149,3.0,11.0,82,0.00,,,0.00,0.0,meteohub,2013-04-19 10:10:00,
2013-04-19 06:15:00,77.4,71.4,30.00,ESE,123,9.0,10.0,82,0.00,,,0.00,0.0,meteohub,2013-04-19 10:15:00,
2013-04-19 06:20:00,77.5,71.6,30.00,SE,145,8.0,9.0,82,0.00,,,0.00,0.0,meteohub,2013-04-19 10:20:00,
2013-04-19 06:25:00,77.5,71.2,30.00,SSE,148,3.0,10.0,81,0.00,,,0.00,0.0,meteohub,2013-04-19 10:25:00,
2013-04-19 06:30:00,77.5,71.2,30.01,SE,134,5.0,11.0,81,0.00,,,0.00,0.0,meteohub,2013-04-19 10:30:00,
2013-04-19 06:35:00,77.5,71.2,30.01,SSE,163,5.0,11.0,81,0.00,,,0.00,0.0,meteohub,2013-04-19 10:35:00,
2013-04-19 06:40:00,77.5,71.2,30.01,SE,131,10.0,11.0,81,0.00,,,0.00,0.0,meteohub,2013-04-19 10:40:00,
2013-04-19 06:45:00,77.5,70.9,30.01,South,183,5.0,10.0,80,0.00,,,0.00,0.0,meteohub,2013-04-19 10:45:00,
2013-04-19 06:50:00,77.5,70.9,30.01,SSE,155,4.0,11.0,80,0.00,,,0.00,0.0,meteohub,2013-04-19 10:50:00,
2013-04-19 06:55:00,77.5,70.9,30.01,SSE,160,5.0,11.0,80,0.00,,,0.00,0.0,meteohub,2013-04-19 10:55:00,
2013-04-19 07:00:00,77.5,71.2,30.01,SSE,149,5.0,11.0,81,0.00,,,0.00,5.0,meteohub,2013-04-19 11:00:00,
2013-04-19 07:05:00,77.5,71.2,30.01,SE,138,6.0,11.0,81,0.00,,,0.00,9.0,meteohub,2013-04-19 11:05:00,
2013-04-19 07:10:00,77.4,71.1,30.01,SE,128,3.0,9.0,81,0.00,,,0.00,9.0,meteohub,2013-04-19 11:10:00,
2013-04-19 07:15:00,77.2,71.2,30.01,SSE,151,10.0,10.0,82,0.00,,,0.00,12.0,meteohub,2013-04-19 11:15:00,
2013-04-19 07:20:00,77.4,71.1,30.02,SE,138,6.0,10.0,81,0.00,,,0.00,19.0,meteohub,2013-04-19 11:20:00,
2013-04-19 07:25:00,77.5,71.2,30.02,SE,134,6.0,10.0,81,0.00,,,0.00,40.0,meteohub,2013-04-19 11:25:00,
2013-04-19 07:30:00,77.7,71.4,30.02,SE,138,6.0,11.0,81,0.00,,,0.00,53.0,meteohub,2013-04-19 11:30:00,
2013-04-19 07:35:00,78.1,71.8,30.02,SE,144,3.0,11.0,81,0.00,,,0.00,67.0,meteohub,2013-04-19 11:35:00,
2013-04-19 07:40:00,78.1,71.8,30.02,South,173,5.0,11.0,81,0.00,,,0.00,33.0,meteohub,2013-04-19 11:40:00,
2013-04-19 07:45:00,78.1,71.8,30.02,ESE,116,3.0,10.0,81,0.00,,,0.00,104.0,meteohub,2013-04-19 11:45:00,
2013-04-19 07:50:00,78.3,71.6,30.02,SE,134,5.0,11.0,80,0.00,,,0.00,123.0,meteohub,2013-04-19 11:50:00,
2013-04-19 07:55:00,78.6,71.6,30.03,SSE,161,4.0,11.0,79,0.00,,,0.00,42.0,meteohub,2013-04-19 11:55:00,
2013-04-19 08:00:00,78.6,71.6,30.02,SSE,148,7.0,11.0,79,0.00,,,0.00,70.0,meteohub,2013-04-19 12:00:00,
2013-04-19 08:05:00,79.0,72.0,30.03,SSE,155,6.0,10.0,79,0.00,,,0.00,179.0,meteohub,2013-04-19 12:05:00,
2013-04-19 08:10:00,79.3,72.0,30.03,ESE,107,8.0,9.0,78,0.00,,,0.00,192.0,meteohub,2013-04-19 12:10:00,
2013-04-19 08:15:00,79.3,71.4,30.03,SE,130,10.0,15.0,77,0.00,,,0.00,211.0,meteohub,2013-04-19 12:15:00,
2013-04-19 08:20:00,79.3,72.0,30.03,SE,138,10.0,15.0,78,0.00,,,0.00,239.0,meteohub,2013-04-19 12:20:00,
2013-04-19 08:26:00,79.9,72.0,30.03,SE,142,7.0,15.0,77,0.00,,,0.00,262.0,meteohub,2013-04-19 12:26:00,
2013-04-19 08:31:00,80.1,72.1,30.03,SSE,162,7.0,15.0,77,0.00,,,0.00,132.0,meteohub,2013-04-19 12:31:00,
2013-04-19 08:36:00,80.4,72.1,30.03,SSE,157,12.0,14.0,76,0.00,,,0.00,306.0,meteohub,2013-04-19 12:36:00,
2013-04-19 08:41:00,80.1,71.8,30.03,SSE,165,8.0,18.0,76,0.00,,,0.00,155.0,meteohub,2013-04-19 12:41:00,
2013-04-19 08:46:00,80.4,72.1,30.04,SSE,152,12.0,19.0,76,0.00,,,0.00,362.0,meteohub,2013-04-19 12:46:00,
2013-04-19 08:51:00,80.2,72.3,30.04,SSE,161,8.0,19.0,77,0.00,,,0.00,413.0,meteohub,2013-04-19 12:51:00,
2013-04-19 08:56:00,81.0,72.7,30.04,SSE,157,5.0,19.0,76,0.00,,,0.00,250.0,meteohub,2013-04-19 12:56:00,
2013-04-19 09:01:00,80.4,71.8,30.04,SE,134,7.0,16.0,75,0.00,,,0.00,121.0,meteohub,2013-04-19 13:01:00,
2013-04-19 09:06:00,81.1,72.5,30.04,SE,139,10.0,16.0,75,0.00,,,0.00,466.0,meteohub,2013-04-19 13:06:00,
2013-04-19 09:11:00,81.1,72.9,30.04,SSE,149,8.0,16.0,76,0.00,,,0.00,174.0,meteohub,2013-04-19 13:11:00,
2013-04-19 09:16:00,81.1,72.1,30.04,SE,143,7.0,16.0,74,0.00,,,0.00,174.0,meteohub,2013-04-19 13:16:00,
2013-04-19 09:21:00,80.8,72.1,30.04,SE,126,12.0,19.0,75,0.00,,,0.00,313.0,meteohub,2013-04-19 13:21:00,
2013-04-19 09:26:00,81.1,72.5,30.04,SE,145,8.0,19.0,75,0.00,,,0.00,547.0,meteohub,2013-04-19 13:26:00,
2013-04-19 09:31:00,81.9,72.7,30.04,SE,124,14.0,19.0,74,0.00,,,0.00,591.0,meteohub,2013-04-19 13:31:00,
2013-04-19 09:36:00,81.3,72.3,30.04,SE,134,9.0,17.0,74,0.00,,,0.00,172.0,meteohub,2013-04-19 13:36:00,
2013-04-19 09:41:00,81.0,72.3,30.04,South,178,5.0,22.0,75,0.00,,,0.00,137.0,meteohub,2013-04-19 13:41:00,
2013-04-19 09:46:00,81.5,72.3,30.04,SE,140,8.0,22.0,74,0.00,,,0.00,193.0,meteohub,2013-04-19 13:46:00,
2013-04-19 09:51:00,81.7,72.1,30.04,SSE,160,14.0,20.0,73,0.00,,,0.00,671.0,meteohub,2013-04-19 13:51:00,
2013-04-19 09:56:00,82.2,72.7,30.04,SSE,160,13.0,20.0,73,0.00,,,0.00,589.0,meteohub,2013-04-19 13:56:00,
2013-04-19 10:01:00,82.0,72.5,30.04,East,101,11.0,20.0,73,0.00,,,0.00,731.0,meteohub,2013-04-19 14:01:00,
2013-04-19 10:06:00,82.0,72.5,30.04,SE,134,6.0,19.0,73,0.00,,,0.00,679.0,meteohub,2013-04-19 14:06:00,
2013-04-19 10:11:00,82.6,72.7,30.05,SSE,162,15.0,19.0,72,0.00,,,0.00,686.0,meteohub,2013-04-19 14:11:00,
2013-04-19 10:16:00,82.9,72.5,30.04,SSE,159,10.0,19.0,71,0.00,,,0.00,729.0,meteohub,2013-04-19 14:16:00,
2013-04-19 10:21:00,82.6,73.0,30.04,SE,135,7.0,19.0,73,0.00,,,0.00,232.0,meteohub,2013-04-19 14:21:00,
2013-04-19 10:26:00,83.1,73.2,30.04,ESE,122,13.0,19.0,72,0.00,,,0.00,791.0,meteohub,2013-04-19 14:26:00,
2013-04-19 10:31:00,83.1,72.7,30.04,ESE,109,13.0,21.0,71,0.00,,,0.00,784.0,meteohub,2013-04-19 14:31:00,
2013-04-19 10:36:00,83.5,73.6,30.04,SE,146,11.0,21.0,72,0.00,,,0.00,824.0,meteohub,2013-04-19 14:36:00,
2013-04-19 10:41:00,83.7,73.6,30.04,SE,140,6.0,21.0,72,0.00,,,0.00,828.0,meteohub,2013-04-19 14:41:00,
2013-04-19 10:46:00,84.0,72.7,30.04,SE,146,16.0,21.0,69,0.00,,,0.00,835.0,meteohub,2013-04-19 14:46:00,
2013-04-19 10:52:00,83.8,72.5,30.04,SE,140,8.0,21.0,69,0.00,,,0.00,803.0,meteohub,2013-04-19 14:52:00,
2013-04-19 10:57:00,84.7,73.0,30.04,SE,135,14.0,19.0,68,0.00,,,0.00,853.0,meteohub,2013-04-19 14:57:00,
2013-04-19 11:02:00,83.8,72.5,30.04,SSE,148,10.0,21.0,69,0.00,,,0.00,956.0,meteohub,2013-04-19 15:02:00,
2013-04-19 11:07:00,84.4,73.6,30.05,SSE,162,17.0,23.0,70,0.00,,,0.00,949.0,meteohub,2013-04-19 15:07:00,
2013-04-19 11:12:00,83.7,72.3,30.04,SSE,147,16.0,23.0,69,0.00,,,0.00,953.0,meteohub,2013-04-19 15:12:00,
2013-04-19 11:17:00,83.7,73.2,30.04,SSE,148,11.0,23.0,71,0.00,,,0.00,918.0,meteohub,2013-04-19 15:17:00,
2013-04-19 11:23:00,84.2,72.9,30.04,SE,128,8.0,23.0,69,0.00,,,0.00,928.0,meteohub,2013-04-19 15:23:00,
2013-04-19 11:28:00,84.4,72.7,30.04,SSE,159,14.0,23.0,68,0.00,,,0.00,933.0,meteohub,2013-04-19 15:28:00,
2013-04-19 11:33:00,84.0,73.6,30.04,North,0,13.0,22.0,71,0.00,,,0.00,921.0,meteohub,2013-04-19 15:33:00,
2013-04-19 11:38:00,83.5,73.0,30.05,SSE,167,18.0,22.0,71,0.00,,,0.00,919.0,meteohub,2013-04-19 15:38:00,
2013-04-19 11:43:00,83.8,73.0,30.04,SSE,153,9.0,22.0,70,0.00,,,0.00,946.0,meteohub,2013-04-19 15:43:00,
2013-04-19 11:48:00,84.4,73.6,30.04,SE,144,17.0,20.0,70,0.00,,,0.00,918.0,meteohub,2013-04-19 15:48:00,
2013-04-19 11:53:00,84.4,73.0,30.04,SSE,155,12.0,20.0,69,0.00,,,0.00,953.0,meteohub,2013-04-19 15:53:00,
2013-04-19 11:58:00,84.7,73.9,30.04,SE,132,13.0,20.0,70,0.00,,,0.00,1071.0,meteohub,2013-04-19 15:58:00,
2013-04-19 12:03:00,85.1,74.1,30.04,SE,145,16.0,20.0,70,0.00,,,0.00,981.0,meteohub,2013-04-19 16:03:00,
2013-04-19 12:08:00,83.8,73.0,30.04,SSE,153,19.0,20.0,70,0.00,,,0.00,309.0,meteohub,2013-04-19 16:08:00,
2013-04-19 12:13:00,84.7,73.9,30.04,ESE,118,12.0,21.0,70,0.00,,,0.00,1041.0,meteohub,2013-04-19 16:13:00,
2013-04-19 12:18:00,84.9,73.2,30.04,SSE,159,16.0,21.0,68,0.00,,,0.00,983.0,meteohub,2013-04-19 16:18:00,
2013-04-19 12:23:00,84.6,73.8,30.04,SSE,163,12.0,21.0,70,0.00,,,0.00,998.0,meteohub,2013-04-19 16:23:00,
2013-04-19 12:28:00,84.7,73.9,30.04,SE,140,6.0,20.0,70,0.00,,,0.00,995.0,meteohub,2013-04-19 16:28:00,
2013-04-19 12:33:00,86.2,74.3,30.04,ESE,114,14.0,20.0,68,0.00,,,0.00,997.0,meteohub,2013-04-19 16:33:00,
2013-04-19 12:38:00,85.5,72.9,30.04,South,173,14.0,19.0,66,0.00,,,0.00,1030.0,meteohub,2013-04-19 16:38:00,
2013-04-19 12:43:00,85.1,72.5,30.04,SE,125,8.0,20.0,66,0.00,,,0.00,1030.0,meteohub,2013-04-19 16:43:00,
2013-04-19 12:48:00,85.8,72.1,30.03,South,169,10.0,20.0,64,0.00,,,0.00,998.0,meteohub,2013-04-19 16:48:00,
2013-04-19 12:53:00,85.6,73.4,30.03,ESE,119,10.0,22.0,67,0.00,,,0.00,965.0,meteohub,2013-04-19 16:53:00,
2013-04-19 12:58:00,85.6,73.0,30.03,SE,136,13.0,22.0,66,0.00,,,0.00,1035.0,meteohub,2013-04-19 16:58:00,
2013-04-19 13:03:00,85.1,73.4,30.03,ESE,117,10.0,20.0,68,0.00,,,0.00,1025.0,meteohub,2013-04-19 17:03:00,
2013-04-19 13:08:00,85.1,73.8,30.02,ESE,108,13.0,21.0,69,0.00,,,0.00,1014.0,meteohub,2013-04-19 17:08:00,
2013-04-19 13:13:00,84.7,73.4,30.02,ESE,105,7.0,23.0,69,0.00,,,0.00,984.0,meteohub,2013-04-19 17:13:00,
2013-04-19 13:18:00,84.6,72.3,30.02,ESE,109,12.0,23.0,67,0.00,,,0.00,976.0,meteohub,2013-04-19 17:18:00,
2013-04-19 13:23:00,84.6,72.9,30.02,SSE,165,10.0,23.0,68,0.00,,,0.00,947.0,meteohub,2013-04-19 17:23:00,
2013-04-19 13:28:00,84.4,72.7,30.02,ESE,115,12.0,24.0,68,0.00,,,0.00,1023.0,meteohub,2013-04-19 17:28:00,
2013-04-19 13:33:00,84.6,72.3,30.02,SE,142,16.0,24.0,67,0.00,,,0.00,1007.0,meteohub,2013-04-19 17:33:00,
2013-04-19 13:38:00,83.8,72.5,30.02,SSE,151,9.0,24.0,69,0.00,,,0.00,281.0,meteohub,2013-04-19 17:38:00,
2013-04-19 13:43:00,84.6,73.2,30.02,South,178,10.0,23.0,69,0.00,,,0.00,1121.0,meteohub,2013-04-19 17:43:00,
2013-04-19 13:48:00,84.6,72.3,30.02,SSE,150,9.0,23.0,67,0.00,,,0.00,993.0,meteohub,2013-04-19 17:48:00,
2013-04-19 13:53:00,84.6,72.3,30.02,SE,145,18.0,20.0,67,0.00,,,0.00,1005.0,meteohub,2013-04-19 17:53:00,
2013-04-19 13:58:00,84.2,72.9,30.02,SSE,155,10.0,21.0,69,0.00,,,0.00,951.0,meteohub,2013-04-19 17:58:00,
2013-04-19 14:03:00,84.9,73.6,30.02,ESE,115,8.0,21.0,69,0.00,,,0.00,1062.0,meteohub,2013-04-19 18:03:00,
2013-04-19 14:08:00,83.7,72.3,30.02,SE,133,14.0,21.0,69,0.00,,,0.00,338.0,meteohub,2013-04-19 18:08:00,
2013-04-19 14:13:00,83.7,72.9,30.01,SSE,158,12.0,24.0,70,0.00,,,0.00,1046.0,meteohub,2013-04-19 18:13:00,
2013-04-19 14:18:00,84.2,73.4,30.01,SE,130,11.0,24.0,70,0.00,,,0.00,1046.0,meteohub,2013-04-19 18:18:00,
2013-04-19 14:23:00,84.7,73.0,30.01,SE,137,22.0,24.0,68,0.00,,,0.00,953.0,meteohub,2013-04-19 18:23:00,
2013-04-19 14:28:00,84.9,73.6,30.01,ESE,111,14.0,22.0,69,0.00,,,0.00,1085.0,meteohub,2013-04-19 18:28:00,
2013-04-19 14:33:00,84.7,73.4,30.01,ESE,115,9.0,22.0,69,0.00,,,0.00,1069.0,meteohub,2013-04-19 18:33:00,
2013-04-19 14:38:00,84.4,73.0,30.01,SE,139,9.0,22.0,69,0.00,,,0.00,309.0,meteohub,2013-04-19 18:38:00,
2013-04-19 14:43:00,85.3,74.3,30.01,SE,138,12.0,20.0,70,0.00,,,0.00,1016.0,meteohub,2013-04-19 18:43:00,
2013-04-19 14:48:00,84.7,73.4,30.01,SSE,153,12.0,20.0,69,0.00,,,0.00,984.0,meteohub,2013-04-19 18:48:00,
2013-04-19 14:53:00,84.2,72.9,30.01,SSE,148,11.0,19.0,69,0.00,,,0.00,427.0,meteohub,2013-04-19 18:53:00,
2013-04-19 14:58:00,84.6,73.8,30.00,ESE,122,11.0,19.0,70,0.00,,,0.00,262.0,meteohub,2013-04-19 18:58:00,
2013-04-19 15:03:00,83.8,72.5,30.00,SSE,150,11.0,18.0,69,0.00,,,0.00,288.0,meteohub,2013-04-19 19:03:00,
2013-04-19 15:08:00,85.6,73.9,30.00,SE,137,10.0,18.0,68,0.00,,,0.00,916.0,meteohub,2013-04-19 19:08:00,
2013-04-19 15:13:00,86.2,72.5,30.00,SSE,155,11.0,18.0,64,0.00,,,0.00,865.0,meteohub,2013-04-19 19:13:00,
2013-04-19 15:18:00,85.3,72.1,30.00,SSE,154,12.0,17.0,65,0.00,,,0.00,805.0,meteohub,2013-04-19 19:18:00,
2013-04-19 15:23:00,85.1,72.0,30.00,ESE,120,14.0,18.0,65,0.00,,,0.00,812.0,meteohub,2013-04-19 19:23:00,
2013-04-19 15:28:00,85.3,72.1,30.00,SSE,162,11.0,21.0,65,0.00,,,0.00,809.0,meteohub,2013-04-19 19:28:00,
2013-04-19 15:33:00,85.5,71.4,29.99,SE,146,9.0,21.0,63,0.00,,,0.00,768.0,meteohub,2013-04-19 19:33:00,
2013-04-19 15:38:00,85.8,71.8,29.99,ESE,122,10.0,21.0,63,0.00,,,0.00,751.0,meteohub,2013-04-19 19:38:00,
2013-04-19 15:43:00,85.8,71.8,29.99,SSE,148,8.0,20.0,63,0.00,,,0.00,745.0,meteohub,2013-04-19 19:43:00,
2013-04-19 15:48:00,85.8,71.2,29.98,SSE,162,10.0,18.0,62,0.00,,,0.00,735.0,meteohub,2013-04-19 19:48:00,
2013-04-19 15:53:00,85.6,71.6,29.98,SE,138,14.0,16.0,63,0.00,,,0.00,763.0,meteohub,2013-04-19 19:53:00,
2013-04-19 15:58:00,85.3,71.8,29.98,South,172,15.0,19.0,64,0.00,,,0.00,747.0,meteohub,2013-04-19 19:58:00,
2013-04-19 16:03:00,84.4,71.8,29.98,SE,136,18.0,19.0,66,0.00,,,0.00,717.0,meteohub,2013-04-19 20:03:00,
2013-04-19 16:08:00,84.9,72.3,29.97,SSE,165,11.0,21.0,66,0.00,,,0.00,731.0,meteohub,2013-04-19 20:08:00,
2013-04-19 16:13:00,85.3,71.2,29.97,SSE,153,16.0,21.0,63,0.00,,,0.00,700.0,meteohub,2013-04-19 20:13:00,
2013-04-19 16:18:00,85.3,71.8,29.97,SSE,166,8.0,21.0,64,0.00,,,0.00,612.0,meteohub,2013-04-19 20:18:00,
2013-04-19 16:23:00,85.6,72.1,29.97,ESE,121,17.0,20.0,64,0.00,,,0.00,613.0,meteohub,2013-04-19 20:23:00,
2013-04-19 16:28:00,85.3,72.1,29.97,SE,137,13.0,19.0,65,0.00,,,0.00,638.0,meteohub,2013-04-19 20:28:00,
2013-04-19 16:33:00,85.5,72.3,29.97,SE,142,15.0,19.0,65,0.00,,,0.00,633.0,meteohub,2013-04-19 20:33:00,
2013-04-19 16:38:00,85.1,72.5,29.97,SSE,162,10.0,21.0,66,0.00,,,0.00,628.0,meteohub,2013-04-19 20:38:00,
2013-04-19 16:43:00,84.7,71.6,29.97,SSE,150,5.0,21.0,65,0.00,,,0.00,591.0,meteohub,2013-04-19 20:43:00,
2013-04-19 16:48:00,84.9,70.0,29.96,SSE,152,13.0,21.0,61,0.00,,,0.00,524.0,meteohub,2013-04-19 20:48:00,
2013-04-19 16:53:00,84.9,70.5,29.96,SSE,148,14.0,21.0,62,0.00,,,0.00,536.0,meteohub,2013-04-19 20:53:00,
2013-04-19 16:58:00,84.9,69.4,29.96,SSE,147,11.0,21.0,60,0.00,,,0.00,355.0,meteohub,2013-04-19 20:58:00,
2013-04-19 17:03:00,84.7,70.3,29.96,SE,140,8.0,21.0,62,0.00,,,0.00,411.0,meteohub,2013-04-19 21:03:00,
2013-04-19 17:08:00,84.6,70.5,29.96,SSE,165,12.0,21.0,63,0.00,,,0.00,429.0,meteohub,2013-04-19 21:08:00,
2013-04-19 17:13:00,84.7,70.7,29.97,SSE,148,15.0,21.0,63,0.00,,,0.00,515.0,meteohub,2013-04-19 21:13:00,
2013-04-19 17:18:00,84.9,70.9,29.97,SSE,157,8.0,21.0,63,0.00,,,0.00,441.0,meteohub,2013-04-19 21:18:00,
2013-04-19 17:23:00,84.6,70.2,29.97,South,173,12.0,18.0,62,0.00,,,0.00,230.0,meteohub,2013-04-19 21:23:00,
2013-04-19 17:28:00,83.7,71.1,29.96,SSE,153,13.0,18.0,66,0.00,,,0.00,165.0,meteohub,2013-04-19 21:28:00,
2013-04-19 17:33:00,82.6,70.9,29.96,SE,129,20.0,20.0,68,0.00,,,0.00,130.0,meteohub,2013-04-19 21:33:00,
2013-04-19 17:39:00,82.2,70.5,29.97,SE,136,6.0,21.0,68,0.00,,,0.00,137.0,meteohub,2013-04-19 21:39:00,
2013-04-19 17:44:00,82.2,71.1,29.97,SSE,168,8.0,21.0,69,0.00,,,0.00,165.0,meteohub,2013-04-19 21:44:00,
2013-04-19 17:49:00,83.1,72.0,29.97,ESE,117,8.0,20.0,69,0.00,,,0.00,454.0,meteohub,2013-04-19 21:49:00,
2013-04-19 17:54:00,83.1,70.5,29.97,SE,133,13.0,19.0,66,0.00,,,0.00,432.0,meteohub,2013-04-19 21:54:00,
2013-04-19 17:59:00,82.9,70.9,29.97,SSE,160,12.0,19.0,67,0.00,,,0.00,311.0,meteohub,2013-04-19 21:59:00,
2013-04-19 18:04:00,82.9,70.3,29.97,South,188,12.0,19.0,66,0.00,,,0.00,301.0,meteohub,2013-04-19 22:04:00,
2013-04-19 18:09:00,83.1,71.1,29.97,SE,139,8.0,20.0,67,0.00,,,0.00,246.0,meteohub,2013-04-19 22:09:00,
2013-04-19 18:14:00,83.3,71.2,29.97,SSE,155,8.0,20.0,67,0.00,,,0.00,244.0,meteohub,2013-04-19 22:14:00,
2013-04-19 18:19:00,83.3,71.6,29.97,South,170,12.0,20.0,68,0.00,,,0.00,202.0,meteohub,2013-04-19 22:19:00,
2013-04-19 18:24:00,83.1,71.4,29.97,SE,142,8.0,16.0,68,0.00,,,0.00,116.0,meteohub,2013-04-19 22:24:00,
2013-04-19 18:29:00,83.1,71.4,29.97,SSE,154,11.0,16.0,68,0.00,,,0.00,109.0,meteohub,2013-04-19 22:29:00,
2013-04-19 18:34:00,82.8,71.6,29.97,SE,143,6.0,16.0,69,0.00,,,0.00,91.0,meteohub,2013-04-19 22:34:00,
2013-04-19 18:39:00,82.2,71.1,29.97,SSE,165,11.0,16.0,69,0.00,,,0.00,77.0,meteohub,2013-04-19 22:39:00,
2013-04-19 18:44:00,82.0,71.2,29.96,ESE,123,16.0,16.0,70,0.00,,,0.00,69.0,meteohub,2013-04-19 22:44:00,
2013-04-19 18:49:00,81.9,72.0,29.97,SSE,161,5.0,19.0,72,0.00,,,0.00,63.0,meteohub,2013-04-19 22:49:00,
2013-04-19 18:54:00,81.7,72.1,29.97,South,183,5.0,19.0,73,0.00,,,0.00,51.0,meteohub,2013-04-19 22:54:00,
2013-04-19 18:59:00,81.7,72.1,29.97,SSE,151,7.0,19.0,73,0.00,,,0.00,83.0,meteohub,2013-04-19 22:59:00,
2013-04-19 19:04:00,81.7,72.5,29.97,ESE,118,9.0,17.0,74,0.00,,,0.00,79.0,meteohub,2013-04-19 23:04:00,
2013-04-19 19:09:00,81.3,72.3,29.97,SE,132,9.0,15.0,74,0.00,,,0.00,47.0,meteohub,2013-04-19 23:09:00,
2013-04-19 19:14:00,81.1,72.5,29.96,ESE,113,9.0,15.0,75,0.00,,,0.00,47.0,meteohub,2013-04-19 23:14:00,
2013-04-19 19:19:00,81.0,72.7,29.96,SE,133,12.0,18.0,76,0.00,,,0.00,37.0,meteohub,2013-04-19 23:19:00,
2013-04-19 19:24:00,81.0,72.7,29.96,SE,136,8.0,18.0,76,0.00,,,0.00,28.0,meteohub,2013-04-19 23:24:00,
2013-04-19 19:29:00,80.8,72.9,29.96,SSE,148,11.0,17.0,77,0.00,,,0.00,18.0,meteohub,2013-04-19 23:29:00,
2013-04-19 19:34:00,80.4,72.5,29.96,SSE,159,4.0,14.0,77,0.00,,,0.00,11.0,meteohub,2013-04-19 23:34:00,
2013-04-19 19:39:00,80.4,72.9,29.97,SSE,150,8.0,14.0,78,0.00,,,0.00,7.0,meteohub,2013-04-19 23:39:00,
2013-04-19 19:45:00,80.2,73.0,29.97,SSE,163,8.0,15.0,79,0.00,,,0.00,5.0,meteohub,2013-04-19 23:45:00,
2013-04-19 19:50:00,80.2,73.0,29.98,SSE,148,4.0,15.0,79,0.00,,,0.00,7.0,meteohub,2013-04-19 23:50:00,
2013-04-19 19:55:00,80.2,73.0,29.99,ESE,111,4.0,15.0,79,0.00,,,0.00,0.0,meteohub,2013-04-19 23:55:00,
2013-04-19 20:00:00,80.2,73.6,30.00,SE,137,4.0,12.0,80,0.00,,,0.00,0.0,meteohub,2013-04-20 00:00:00,
2013-04-19 20:05:00,80.2,73.6,30.00,ESE,119,8.0,10.0,80,0.00,,,0.00,0.0,meteohub,2013-04-20 00:05:00,
2013-04-19 20:10:00,80.2,73.6,30.00,SSW,197,3.0,10.0,80,0.00,,,0.00,0.0,meteohub,2013-04-20 00:10:00,
2013-04-19 20:15:00,80.2,73.6,30.00,SSE,147,5.0,10.0,80,0.00,,,0.00,0.0,meteohub,2013-04-20 00:15:00,
2013-04-19 20:20:00,80.2,73.6,30.01,SSE,147,10.0,10.0,80,0.00,,,0.00,0.0,meteohub,2013-04-20 00:20:00,
2013-04-19 20:25:00,80.2,73.6,30.01,SE,144,6.0,12.0,80,0.00,,,0.00,0.0,meteohub,2013-04-20 00:25:00,
2013-04-19 20:30:00,80.2,73.6,30.01,SSE,151,7.0,12.0,80,0.00,,,0.00,0.0,meteohub,2013-04-20 00:30:00,
2013-04-19 20:35:00,80.1,73.4,30.01,SSE,148,4.0,12.0,80,0.00,,,0.00,0.0,meteohub,2013-04-20 00:35:00,
2013-04-19 20:40:00,80.1,73.4,30.01,SSE,148,6.0,10.0,80,0.00,,,0.00,0.0,meteohub,2013-04-20 00:40:00,
2013-04-19 20:45:00,80.1,73.4,30.01,ESE,120,8.0,10.0,80,0.00,,,0.00,0.0,meteohub,2013-04-20 00:45:00,
2013-04-19 20:50:00,80.1,73.4,30.01,SSE,151,8.0,10.0,80,0.00,,,0.00,0.0,meteohub,2013-04-20 00:50:00,
2013-04-19 20:55:00,80.1,73.8,30.01,SSE,162,9.0,10.0,81,0.00,,,0.00,0.0,meteohub,2013-04-20 00:55:00,
2013-04-19 21:00:00,80.1,73.8,30.01,SSE,163,3.0,13.0,81,0.00,,,0.00,0.0,meteohub,2013-04-20 01:00:00,
2013-04-19 21:05:00,79.9,73.6,30.02,SE,142,3.0,10.0,81,0.00,,,0.00,0.0,meteohub,2013-04-20 01:05:00,
2013-04-19 21:10:00,79.9,73.9,30.02,SSE,167,2.0,9.0,82,0.00,,,0.00,0.0,meteohub,2013-04-20 01:10:00,
2013-04-19 21:15:00,79.9,73.9,30.02,South,169,3.0,9.0,82,0.00,,,0.00,0.0,meteohub,2013-04-20 01:15:00,
2013-04-19 21:20:00,79.9,73.9,30.02,SE,143,3.0,6.0,82,0.00,,,0.00,0.0,meteohub,2013-04-20 01:20:00,
2013-04-19 21:25:00,79.9,73.9,30.03,South,178,6.0,6.0,82,0.00,,,0.00,0.0,meteohub,2013-04-20 01:25:00,
2013-04-19 21:30:00,80.1,74.1,30.03,SSE,164,5.0,6.0,82,0.00,,,0.00,0.0,meteohub,2013-04-20 01:30:00,
2013-04-19 21:35:00,79.9,73.9,30.03,South,171,3.0,6.0,82,0.00,,,0.00,0.0,meteohub,2013-04-20 01:35:00,
2013-04-19 21:40:00,79.9,74.3,30.03,SSE,161,4.0,6.0,83,0.00,,,0.00,0.0,meteohub,2013-04-20 01:40:00,
2013-04-19 21:45:00,79.9,74.3,30.03,SSE,155,6.0,8.0,83,0.00,,,0.00,0.0,meteohub,2013-04-20 01:45:00,
2013-04-19 21:50:00,79.9,73.2,30.04,South,178,6.0,17.0,80,0.00,,,0.00,0.0,meteohub,2013-04-20 01:50:00,
2013-04-19 21:55:00,79.3,72.7,30.04,South,171,5.0,17.0,80,0.00,,,0.00,0.0,meteohub,2013-04-20 01:55:00,
2013-04-19 22:01:00,79.2,72.9,30.04,South,178,5.0,17.0,81,0.00,,,0.00,0.0,meteohub,2013-04-20 02:01:00,
2013-04-19 22:06:00,79.0,73.0,30.04,South,182,2.0,11.0,82,0.00,,,0.00,0.0,meteohub,2013-04-20 02:06:00,
2013-04-19 22:11:00,78.6,73.4,30.04,SSW,196,3.0,10.0,84,0.00,,,0.00,0.0,meteohub,2013-04-20 02:11:00,
2013-04-19 22:16:00,78.3,73.4,30.04,South,187,3.0,8.0,85,0.00,,,0.00,0.0,meteohub,2013-04-20 02:16:00,
2013-04-19 22:21:00,78.1,73.6,30.04,South,178,2.0,8.0,86,0.00,,,0.00,0.0,meteohub,2013-04-20 02:21:00,
2013-04-19 22:26:00,77.5,73.4,30.04,South,178,2.0,5.0,87,0.00,,,0.00,0.0,meteohub,2013-04-20 02:26:00,
2013-04-19 22:31:00,77.4,73.6,30.04,South,177,0.0,4.0,88,0.00,,,0.00,0.0,meteohub,2013-04-20 02:31:00,
2013-04-19 22:36:00,77.2,73.4,30.04,South,177,2.0,3.0,88,0.00,,,0.00,0.0,meteohub,2013-04-20 02:36:00,
2013-04-19 22:41:00,77.2,73.8,30.04,South,176,0.0,3.0,89,0.00,,,0.00,0.0,meteohub,2013-04-20 02:41:00,
2013-04-19 22:46:00,77.2,73.8,30.04,South,177,1.0,3.0,89,0.00,,,0.00,0.0,meteohub,2013-04-20 02:46:00,
2013-04-19 22:51:00,77.4,73.9,30.04,South,177,1.0,3.0,89,0.00,,,0.00,0.0,meteohub,2013-04-20 02:51:00,
2013-04-19 22:56:00,77.4,73.9,30.04,SSE,167,2.0,3.0,89,0.00,,,0.00,0.0,meteohub,2013-04-20 02:56:00,
2013-04-19 23:01:00,77.4,73.9,30.04,SSE,167,2.0,3.0,89,0.00,,,0.00,0.0,meteohub,2013-04-20 03:01:00,
2013-04-19 23:06:00,77.4,73.9,30.04,SSE,160,0.0,3.0,89,0.00,,,0.00,0.0,meteohub,2013-04-20 03:06:00,
2013-04-19 23:11:00,77.5,74.1,30.04,SSE,159,3.0,3.0,89,0.00,,,0.00,0.0,meteohub,2013-04-20 03:11:00,
2013-04-19 23:16:00,77.5,74.1,30.04,SE,133,3.0,3.0,89,0.00,,,0.00,0.0,meteohub,2013-04-20 03:16:00,
2013-04-19 23:21:00,77.5,74.1,30.04,SE,142,3.0,4.0,89,0.00,,,0.00,0.0,meteohub,2013-04-20 03:21:00,
2013-04-19 23:26:00,77.5,74.1,30.04,SE,146,1.0,4.0,89,0.00,,,0.00,0.0,meteohub,2013-04-20 03:26:00,
2013-04-19 23:31:00,77.5,74.1,30.04,SSE,151,2.0,4.0,89,0.00,,,0.00,0.0,meteohub,2013-04-20 03:31:00,
2013-04-19 23:36:00,77.7,74.3,30.03,SE,146,1.0,5.0,89,0.00,,,0.00,0.0,meteohub,2013-04-20 03:36:00,
2013-04-19 23:42:00,77.9,74.1,30.03,SSE,149,3.0,6.0,88,0.00,,,0.00,0.0,meteohub,2013-04-20 03:42:00,
2013-04-19 23:47:00,78.1,74.3,30.03,SE,143,6.0,6.0,88,0.00,,,0.00,0.0,meteohub,2013-04-20 03:47:00,
2013-04-19 23:52:00,78.3,74.1,30.03,SSE,167,4.0,8.0,87,0.00,,,0.00,0.0,meteohub,2013-04-20 03:52:00,
2013-04-19 23:57:00,78.3,74.1,30.03,SSE,155,2.0,8.0,87,0.00,,,0.00,0.0,meteohub,2013-04-20 03:57:00,